IRIDIUM 151 (43074 NORAD) Tracking and Keplerian Element Data

This shows tracking and keplerian element data for the satellite.

Feedback or suggestion? Click here.




ElementValue
Catalog43074
NameIRIDIUM 151
Epoch Orbit430
Epoch Day21.52922981
Epoch Year2018
RAAN164.4269
Inclination86.4001
Eccentricity0.0002701
Argument of Perigee97.0298
Mean Anonmoly263.1205
Mean Motion14.34261353
Decay Rate6.1E-07
L11 43074U 17083E 18021.52922981 .00000061 00000-0 14754-4 0 9999
L22 43074 86.4001 164.4269 0002701 97.0298 263.1205 14.34261353 4304

Live tracking and technical data element details for IRIDIUM 151 (NORAD 43074). IRIDIUM 151 can be tracked NOW for your location showing map with azimuth and elevation plus other details from your city location.

Track the satellite on the map from your city or location and see movement details for azimuth, elevation, latitude, longitude, range, height, and movement on the map or in text.







IsCatalogInMostPopularTable: catalog: 43074, numindb: 140
Update: records affected: 1



GetName: 43074 IRIDIUM 151

Hit Count: updated at: Wed, 14 Nov 2018 15:02:56 GMT